| time (UTC) | temp C | wind direction | speed KPH | gust KPH | rain 1hr cm | rain 24hr cm | rain mn cm | humidity % | barometer mb |
| 20260510153705 | 12 | 35 | 4.8 | 6.4 | 0.00 | 0.18 | 0.18 | 77 | 1012.6 |
| 20260510153202 | 12 | 35 | 3.2 | 6.4 | 0.00 | 0.18 | 0.18 | 75 | 1012.5 |
| 20260510152659 | 12 | 42 | 4.8 | 6.4 | 0.00 | 0.18 | 0.18 | 80 | 1012.6 |
| 20260510152155 | 12 | 24 | 3.2 | 6.4 | 0.00 | 0.18 | 0.18 | 82 | 1012.5 |
| 20260510151651 | 12 | 48 | 4.8 | 4.8 | 0.00 | 0.18 | 0.18 | 83 | 1012.5 |
| 20260510151150 | 12 | 59 | 4.8 | 4.8 | 0.00 | 0.18 | 0.18 | 79 | 1012.4 |
| 20260510150645 | 12 | 13 | 4.8 | 6.4 | 0.00 | 0.18 | 0.18 | 77 | 1012.2 |
| 20260510150141 | 12 | 36 | 3.2 | 4.8 | 0.00 | 0.18 | 0.18 | 83 | 1012.2 |
| 20260510145637 | 12 | 50 | 6.4 | 6.4 | 0.00 | 0.18 | 0.18 | 78 | 1012.1 |
| 20260510145134 | 13 | 24 | 4.8 | 8.0 | 0.00 | 0.18 | 0.18 | 79 | 1012.1 |
| 20260510144630 | 12 | 73 | 3.2 | 8.0 | 0.00 | 0.18 | 0.18 | 80 | 1012.0 |
| 20260510144126 | 12 | 60 | 1.6 | 6.4 | 0.00 | 0.18 | 0.18 | 82 | 1012.3 |
| 20260510143622 | 11 | 77 | 6.4 | 9.7 | 0.00 | 0.18 | 0.18 | 87 | 1012.0 |
| 20260510143118 | 11 | 59 | 3.2 | 6.4 | 0.00 | 0.18 | 0.18 | 86 | 1011.9 |
| 20260510142615 | 11 | 40 | 4.8 | 4.8 | 0.00 | 0.18 | 0.18 | 86 | 1012.0 |
| 20260510142112 | 11 | 93 | 3.2 | 8.0 | 0.00 | 0.18 | 0.18 | 86 | 1012.0 |
| 20260510141609 | 11 | 53 | 3.2 | 6.4 | 0.00 | 0.18 | 0.18 | 89 | 1011.8 |
| 20260510141107 | 10 | 40 | 3.2 | 4.8 | 0.00 | 0.18 | 0.18 | 89 | 1012.0 |
| 20260510140603 | 10 | 15 | 4.8 | 6.4 | 0.00 | 0.18 | 0.18 | 88 | 1011.9 |
| 20260510135558 | 10 | 72 | 4.8 | 6.4 | 0.00 | 0.18 | 0.18 | 93 | 1011.7 |
| 20260510135054 | 10 | 30 | 4.8 | 8.0 | 0.00 | 0.18 | 0.18 | 90 | 1011.5 |
| 20260510134551 | 10 | 35 | 4.8 | 8.0 | 0.00 | 0.18 | 0.18 | 92 | 1011.6 |
| 20260510134048 | 10 | 28 | 4.8 | 4.8 | 0.00 | 0.18 | 0.18 | 93 | 1011.7 |
| 20260510133544 | 9 | 35 | 4.8 | 4.8 | 0.00 | 0.18 | 0.18 | 99 | 1011.2 |
| 20260510133040 | 9 | 44 | 4.8 | 6.4 | 0.00 | 0.18 | 0.18 | 99 | 1011.4 |
| 20260510132537 | 9 | 21 | 4.8 | 6.4 | 0.00 | 0.18 | 0.18 | 99 | 1011.1 |
| 20260510132034 | 8 | 17 | 6.4 | 6.4 | 0.00 | 0.18 | 0.18 | 99 | 1011.2 |
| 20260510131532 | 9 | 48 | 3.2 | 6.4 | 0.00 | 0.18 | 0.18 | 99 | 1011.2 |
| 20260510131029 | 10 | 43 | 3.2 | 6.4 | 0.00 | 0.18 | 0.18 | 99 | 1011.1 |
| 20260510130525 | 9 | 56 | 1.6 | 6.4 | 0.00 | 0.18 | 0.18 | 99 | 1011.3 |
| 20260510130023 | 10 | 16 | 3.2 | 8.0 | 0.00 | 0.18 | 0.18 | 99 | 1011.2 |
| 20260510125519 | 9 | 51 | 3.2 | 4.8 | 0.00 | 0.18 | 0.18 | 99 | 1011.2 |
| 20260510125015 | 9 | 40 | 4.8 | 4.8 | 0.00 | 0.18 | 0.18 | 99 | 1011.1 |
| 20260510124512 | 9 | 82 | 4.8 | 4.8 | 0.00 | 0.18 | 0.18 | 99 | 1011.2 |
| 20260510124009 | 9 | 43 | 1.6 | 4.8 | 0.00 | 0.18 | 0.18 | 99 | 1010.8 |
| 20260510123504 | 9 | 46 | 3.2 | 4.8 | 0.00 | 0.18 | 0.18 | 99 | 1010.7 |
| 20260510123000 | 9 | 89 | 1.6 | 3.2 | 0.00 | 0.18 | 0.18 | 99 | 1010.7 |
| 20260510122456 | 9 | 50 | 4.8 | 4.8 | 0.00 | 0.18 | 0.18 | 99 | 1010.7 |
| 20260510121952 | 8 | 63 | 3.2 | 4.8 | 0.00 | 0.18 | 0.18 | 99 | 1010.5 |
| 20260510121449 | 8 | 60 | 3.2 | 4.8 | 0.00 | 0.18 | 0.18 | 99 | 1010.5 |
| 20260510120947 | 8 | 82 | 3.2 | 4.8 | 0.00 | 0.18 | 0.18 | 99 | 1010.4 |
| 20260510120444 | 8 | 29 | 3.2 | 4.8 | 0.00 | 0.18 | 0.18 | 99 | 1010.5 |
| 20260510115940 | 8 | 52 | 3.2 | 4.8 | 0.00 | 0.18 | 0.18 | 99 | 1010.3 |
| 20260510115437 | 8 | 78 | 4.8 | 6.4 | 0.00 | 0.18 | 0.18 | 99 | 1010.1 |
| 20260510114933 | 8 | 80 | 3.2 | 3.2 | 0.00 | 0.18 | 0.18 | 99 | 1010.2 |
| 20260510114430 | 8 | 54 | 3.2 | 3.2 | 0.00 | 0.18 | 0.18 | 99 | 1010.0 |
| 20260510113925 | 8 | 85 | 1.6 | 3.2 | 0.00 | 0.18 | 0.18 | 99 | 1009.9 |
| 20260510113421 | 8 | 61 | 3.2 | 4.8 | 0.00 | 0.18 | 0.18 | 99 | 1009.9 |
| 20260510112919 | 8 | 47 | 3.2 | 3.2 | 0.00 | 0.18 | 0.18 | 99 | 1009.9 |
| 20260510112416 | 8 | 84 | 3.2 | 4.8 | 0.00 | 0.18 | 0.18 | 99 | 1009.9 |
| 20260510111912 | 8 | 66 | 3.2 | 4.8 | 0.00 | 0.18 | 0.18 | 99 | 1009.7 |
| 20260510111408 | 8 | 55 | 3.2 | 3.2 | 0.00 | 0.18 | 0.18 | 99 | 1009.5 |
| 20260510110903 | 8 | 69 | 3.2 | 4.8 | 0.00 | 0.18 | 0.18 | 99 | 1009.7 |
| 20260510110400 | 7 | 81 | 3.2 | 4.8 | 0.00 | 0.18 | 0.18 | 99 | 1009.5 |
| 20260510105857 | 7 | 91 | 3.2 | 3.2 | 0.00 | 0.18 | 0.18 | 99 | 1009.3 |
| 20260510105356 | 7 | 95 | 3.2 | 3.2 | 0.00 | 0.18 | 0.18 | 99 | 1009.4 |
| 20260510104853 | 7 | 101 | 0.0 | 3.2 | 0.00 | 0.18 | 0.18 | 99 | 1008.9 |
| 20260510104350 | 7 | 92 | 3.2 | 3.2 | 0.00 | 0.18 | 0.18 | 99 | 1008.8 |
| 20260510103846 | 7 | 84 | 1.6 | 3.2 | 0.00 | 0.18 | 0.18 | 99 | 1009.0 |
| 20260510103344 | 7 | 53 | 1.6 | 3.2 | 0.00 | 0.18 | 0.18 | 99 | 1009.0 |
| 20260510102839 | 7 | 81 | 3.2 | 4.8 | 0.00 | 0.18 | 0.18 | 99 | 1008.7 |
| 20260510102335 | 7 | 89 | 3.2 | 4.8 | 0.00 | 0.18 | 0.18 | 99 | 1009.1 |
| 20260510101832 | 7 | 58 | 3.2 | 3.2 | 0.00 | 0.18 | 0.18 | 99 | 1008.9 |
| 20260510101330 | 7 | 53 | 3.2 | 3.2 | 0.00 | 0.18 | 0.18 | 99 | 1008.6 |
| 20260510100826 | 7 | 55 | 1.6 | 1.6 | 0.00 | 0.18 | 0.18 | 99 | 1008.8 |
| 20260510100324 | 7 | 45 | 3.2 | 3.2 | 0.00 | 0.18 | 0.18 | 99 | 1008.5 |
| 20260510095820 | 7 | 67 | 4.8 | 4.8 | 0.00 | 0.18 | 0.18 | 99 | 1008.5 |
| 20260510095314 | 7 | 61 | 3.2 | 3.2 | 0.00 | 0.18 | 0.18 | 99 | 1008.5 |
| 20260510094808 | 7 | 48 | 0.0 | 3.2 | 0.00 | 0.18 | 0.18 | 99 | 1008.5 |
| 20260510094304 | 7 | 7 | 1.6 | 3.2 | 0.00 | 0.18 | 0.18 | 99 | 1008.2 |
| 20260510093800 | 7 | 15 | 1.6 | 3.2 | 0.00 | 0.18 | 0.18 | 99 | 1008.2 |
| 20260510093257 | 7 | 45 | 4.8 | 4.8 | 0.00 | 0.18 | 0.18 | 99 | 1008.1 |
| 20260510092753 | 7 | 37 | 3.2 | 3.2 | 0.00 | 0.18 | 0.18 | 99 | 1007.9 |
| 20260510092249 | 7 | 39 | 1.6 | 3.2 | 0.00 | 0.18 | 0.18 | 99 | 1008.2 |
| 20260510091745 | 7 | 58 | 0.0 | 3.2 | 0.00 | 0.18 | 0.18 | 99 | 1008.0 |
| 20260510091242 | 7 | 66 | 3.2 | 3.2 | 0.00 | 0.18 | 0.18 | 99 | 1008.0 |
| 20260510090738 | 7 | 53 | 3.2 | 4.8 | 0.00 | 0.18 | 0.18 | 99 | 1008.1 |
| 20260510090236 | 7 | 58 | 3.2 | 4.8 | 0.00 | 0.18 | 0.18 | 99 | 1008.0 |
| 20260510085731 | 7 | 50 | 4.8 | 4.8 | 0.00 | 0.18 | 0.18 | 99 | 1007.7 |
| 20260510085225 | 7 | 41 | 4.8 | 4.8 | 0.00 | 0.18 | 0.18 | 99 | 1007.8 |
| 20260510084721 | 7 | 42 | 3.2 | 4.8 | 0.00 | 0.18 | 0.18 | 99 | 1007.4 |
| 20260510084219 | 7 | 46 | 4.8 | 4.8 | 0.00 | 0.18 | 0.18 | 99 | 1007.6 |
| 20260510083715 | 7 | 51 | 4.8 | 4.8 | 0.00 | 0.18 | 0.18 | 99 | 1007.6 |
| 20260510083213 | 7 | 70 | 3.2 | 4.8 | 0.00 | 0.18 | 0.18 | 99 | 1007.7 |
| 20260510082708 | 7 | 71 | 3.2 | 4.8 | 0.00 | 0.18 | 0.18 | 99 | 1007.7 |
| 20260510082205 | 7 | 86 | 1.6 | 3.2 | 0.00 | 0.18 | 0.18 | 99 | 1007.6 |
| 20260510081659 | 7 | 36 | 1.6 | 3.2 | 0.00 | 0.18 | 0.18 | 99 | 1007.8 |
| 20260510081155 | 7 | 81 | 3.2 | 3.2 | 0.00 | 0.18 | 0.18 | 99 | 1007.5 |
| 20260510080654 | 7 | 78 | 3.2 | 4.8 | 0.00 | 0.18 | 0.18 | 99 | 1007.4 |
| 20260510080151 | 7 | 126 | 0.0 | 4.8 | 0.00 | 0.18 | 0.18 | 99 | 1007.6 |
| 20260510075648 | 7 | 66 | 3.2 | 3.2 | 0.00 | 0.18 | 0.18 | 99 | 1007.1 |
| 20260510075146 | 7 | 19 | 1.6 | 3.2 | 0.00 | 0.18 | 0.18 | 99 | 1007.1 |
| 20260510074643 | 7 | 95 | 1.6 | 3.2 | 0.00 | 0.18 | 0.18 | 99 | 1007.4 |
| 20260510074138 | 7 | 131 | 0.0 | 3.2 | 0.00 | 0.18 | 0.18 | 99 | 1007.2 |
| 20260510073635 | 8 | 108 | 3.2 | 3.2 | 0.00 | 0.18 | 0.18 | 99 | 1007.2 |
| 20260510073131 | 8 | 38 | 1.6 | 3.2 | 0.00 | 0.18 | 0.18 | 99 | 1007.1 |
| 20260510072627 | 7 | 37 | 1.6 | 3.2 | 0.00 | 0.18 | 0.18 | 99 | 1007.0 |
| 20260510072124 | 7 | 84 | 1.6 | 3.2 | 0.00 | 0.18 | 0.18 | 99 | 1007.0 |
| 20260510071620 | 8 | 55 | 0.0 | 3.2 | 0.00 | 0.18 | 0.18 | 99 | 1007.1 |
| 20260510071118 | 8 | 65 | 3.2 | 3.2 | 0.00 | 0.18 | 0.18 | 99 | 1007.2 |
| 20260510070614 | 8 | 42 | 3.2 | 4.8 | 0.00 | 0.18 | 0.18 | 99 | 1006.9 |
| 20260510070112 | 8 | 43 | 0.0 | 1.6 | 0.00 | 0.18 | 0.18 | 99 | 1006.9 |
| 20260510065608 | 8 | 55 | 0.0 | 0.0 | 0.00 | 0.18 | 0.18 | 99 | 1007.2 |
| 20260510065104 | 8 | 26 | 3.2 | 3.2 | 0.00 | 0.18 | 0.18 | 99 | 1007.0 |
| 20260510064600 | 8 | 330 | 0.0 | 1.6 | 0.00 | 0.18 | 0.18 | 99 | 1007.0 |
| 20260510064058 | 8 | 339 | 0.0 | 1.6 | 0.00 | 0.18 | 0.18 | 99 | 1006.9 |
| 20260510063555 | 8 | 358 | 0.0 | 3.2 | 0.00 | 0.18 | 0.18 | 99 | 1006.9 |
| 20260510063051 | 8 | 68 | 1.6 | 3.2 | 0.00 | 0.18 | 0.18 | 99 | 1007.1 |
| 20260510062547 | 8 | 66 | 3.2 | 3.2 | 0.05 | 0.18 | 0.18 | 99 | 1007.1 |
| 20260510062043 | 9 | 15 | 0.0 | 3.2 | 0.05 | 0.18 | 0.18 | 99 | 1007.2 |
| 20260510061539 | 9 | 46 | 1.6 | 3.2 | 0.00 | 0.18 | 0.18 | 99 | 1007.5 |
| 20260510061036 | 9 | 36 | 4.8 | 4.8 | 0.00 | 0.18 | 0.18 | 99 | 1007.5 |
| 20260510060532 | 9 | 33 | 4.8 | 4.8 | 0.00 | 0.18 | 0.18 | 99 | 1007.4 |
| 20260510060029 | 9 | 56 | 3.2 | 4.8 | 0.00 | 0.18 | 0.18 | 99 | 1007.6 |
| 20260510055525 | 9 | 22 | 3.2 | 4.8 | 0.00 | 0.18 | 0.18 | 99 | 1007.8 |
| 20260510055024 | 9 | 108 | 4.8 | 6.4 | 0.00 | 0.18 | 0.18 | 99 | 1006.9 |
| 20260510054519 | 9 | 275 | 0.0 | 3.2 | 0.00 | 0.18 | 0.18 | 99 | 1007.6 |
| 20260510054014 | 9 | 339 | 3.2 | 6.4 | 0.00 | 0.18 | 0.18 | 99 | 1007.8 |
| 20260510053509 | 9 | 352 | 1.6 | 3.2 | 0.00 | 0.18 | 0.18 | 99 | 1007.7 |
| 20260510053006 | 9 | 358 | 3.2 | 3.2 | 0.00 | 0.18 | 0.18 | 99 | 1008.0 |
| 20260510052502 | 9 | 96 | 1.6 | 1.6 | 0.05 | 0.18 | 0.18 | 99 | 1008.1 |
| 20260510051958 | 9 | 31 | 0.0 | 3.2 | 0.05 | 0.18 | 0.18 | 99 | 1008.1 |
| 20260510051454 | 9 | 125 | 1.6 | 3.2 | 0.00 | 0.15 | 0.15 | 99 | 1008.1 |
| 20260510050950 | 9 | 34 | 0.0 | 3.2 | 0.05 | 0.15 | 0.15 | 99 | 1008.2 |
| 20260510050448 | 9 | 81 | 0.0 | 3.2 | 0.05 | 0.15 | 0.15 | 99 | 1008.4 |
| 20260510045945 | 10 | 139 | 4.8 | 8.0 | 0.23 | 0.15 | 0.15 | 99 | 1008.5 |
| 20260510045442 | 10 | 92 | 3.2 | 4.8 | 0.36 | 0.15 | 0.15 | 99 | 1008.3 |
| 20260510044938 | 10 | 6 | 1.6 | 3.2 | 0.36 | 0.10 | 0.10 | 99 | 1009.0 |
| 20260510044435 | 10 | 303 | 0.0 | 3.2 | 0.30 | 0.08 | 0.08 | 99 | 1008.8 |
| 20260510043932 | 10 | 88 | 1.6 | 3.2 | 0.23 | 0.05 | 0.05 | 98 | 1008.5 |
| 20260510043428 | 10 | 87 | 1.6 | 4.8 | 0.18 | 0.03 | 0.03 | 96 | 1008.6 |
| 20260510042926 | 10 | 75 | 3.2 | 3.2 | 0.05 | 0.00 | 0.00 | 95 | 1008.7 |
| 20260510042422 | 10 | 105 | 1.6 | 4.8 | 0.00 | 0.00 | 0.00 | 94 | 1008.7 |
| 20260510041918 | 10 | 68 | 3.2 | 4.8 | 0.00 | 0.00 | 0.00 | 98 | 1008.7 |
| 20260510041415 | 10 | 59 | 6.4 | 6.4 | 0.00 | 0.00 | 0.00 | 99 | 1008.9 |
| 20260510040913 | 10 | 47 | 1.6 | 4.8 | 0.00 | 0.00 | 0.00 | 99 | 1008.7 |
| 20260510040409 | 10 | 83 | 6.4 | 9.7 | 0.00 | 0.00 | 0.00 | 99 | 1008.6 |
| 20260510035905 | 10 | 89 | 3.2 | 8.0 | 0.00 | 0.94 | 0.94 | 99 | 1008.3 |
| 20260510035401 | 10 | 77 | 3.2 | 4.8 | 0.00 | 0.94 | 0.94 | 99 | 1008.5 |
| 20260510034856 | 10 | 89 | 3.2 | 6.4 | 0.00 | 0.94 | 0.94 | 99 | 1008.6 |
| 20260510034355 | 10 | 81 | 6.4 | 6.4 | 0.00 | 0.94 | 0.94 | 99 | 1008.2 |
| 20260510033851 | 10 | 112 | 4.8 | 11.3 | 0.00 | 0.94 | 0.94 | 99 | 1008.2 |
| 20260510033348 | 9 | 40 | 1.6 | 3.2 | 0.00 | 0.94 | 0.94 | 99 | 1007.4 |
| 20260510032844 | 9 | 305 | 3.2 | 3.2 | 0.00 | 0.94 | 0.94 | 99 | 1007.4 |
| 20260510032341 | 8 | 49 | 0.0 | 3.2 | 0.00 | 0.94 | 0.94 | 99 | 1007.0 |
| 20260510031836 | 8 | 315 | 0.0 | 1.6 | 0.00 | 0.94 | 0.94 | 99 | 1007.2 |
| 20260510031332 | 8 | 315 | 0.0 | 1.6 | 0.00 | 0.94 | 0.94 | 99 | 1007.2 |
| 20260510030832 | 8 | 78 | 1.6 | 3.2 | 0.00 | 0.94 | 0.94 | 99 | 1007.2 |
| 20260510030328 | 8 | 67 | 1.6 | 3.2 | 0.00 | 0.94 | 0.94 | 99 | 1007.5 |
| 20260510025826 | 8 | 96 | 3.2 | 3.2 | 0.00 | 0.94 | 0.94 | 99 | 1007.2 |
| 20260510025323 | 8 | 66 | 0.0 | 3.2 | 0.00 | 0.94 | 0.94 | 99 | 1007.2 |
| 20260510024820 | 8 | 66 | 1.6 | 3.2 | 0.00 | 0.94 | 0.94 | 99 | 1007.1 |
| 20260510024317 | 8 | 84 | 1.6 | 3.2 | 0.00 | 0.94 | 0.94 | 99 | 1007.1 |
| 20260510023813 | 9 | 98 | 3.2 | 3.2 | 0.00 | 0.94 | 0.94 | 99 | 1006.8 |
| 20260510023309 | 9 | 16 | 3.2 | 3.2 | 0.00 | 0.94 | 0.94 | 99 | 1006.8 |
| 20260510022807 | 9 | 356 | 0.0 | 3.2 | 0.00 | 0.94 | 0.94 | 99 | 1006.5 |
| 20260510022307 | 9 | 19 | 0.0 | 3.2 | 0.00 | 0.94 | 0.94 | 99 | 1006.5 |
| 20260510021805 | 9 | 38 | 0.0 | 3.2 | 0.00 | 0.94 | 0.94 | 99 | 1006.5 |
| 20260510021304 | 9 | 44 | 1.6 | 3.2 | 0.00 | 0.94 | 0.94 | 99 | 1006.3 |
| 20260510020759 | 9 | 28 | 1.6 | 3.2 | 0.00 | 0.94 | 0.94 | 99 | 1006.4 |
| 20260510020254 | 8 | 327 | 1.6 | 3.2 | 0.00 | 0.94 | 0.94 | 99 | 1006.4 |
| 20260510015750 | 8 | 91 | 3.2 | 3.2 | 0.00 | 0.94 | 0.94 | 99 | 1006.5 |
| 20260510015247 | 9 | 72 | 1.6 | 3.2 | 0.00 | 0.94 | 0.94 | 99 | 1006.7 |
| 20260510014742 | 9 | 86 | 3.2 | 3.2 | 0.00 | 0.94 | 0.94 | 99 | 1006.3 |
| 20260510014239 | 10 | 48 | 0.0 | 3.2 | 0.00 | 0.94 | 0.94 | 99 | 1006.4 |
| 20260510013735 | 10 | 47 | 3.2 | 3.2 | 0.00 | 0.94 | 0.94 | 99 | 1006.2 |
| 20260510013231 | 10 | 72 | 1.6 | 3.2 | 0.00 | 0.94 | 0.94 | 99 | 1006.2 |
| 20260510012731 | 10 | 69 | 0.0 | 3.2 | 0.00 | 0.94 | 0.94 | 99 | 1006.3 |
| 20260510012226 | 10 | 17 | 0.0 | 1.6 | 0.00 | 0.94 | 0.94 | 99 | 1006.3 |
| 20260510011720 | 10 | 35 | 0.0 | 1.6 | 0.00 | 0.94 | 0.94 | 99 | 1006.3 |
| 20260510011216 | 10 | 145 | 0.0 | 4.8 | 0.00 | 0.94 | 0.94 | 98 | 1006.3 |
| 20260510010713 | 10 | 352 | 1.6 | 3.2 | 0.00 | 0.94 | 0.94 | 99 | 1006.3 |
| 20260510010210 | 10 | 175 | 3.2 | 3.2 | 0.00 | 0.94 | 0.94 | 99 | 1006.2 |
| 20260510005707 | 10 | 338 | 1.6 | 3.2 | 0.00 | 0.94 | 0.94 | 99 | 1005.9 |
| 20260510005203 | 10 | 291 | 0.0 | 3.2 | 0.00 | 0.94 | 0.94 | 99 | 1005.9 |
| 20260510004702 | 10 | 245 | 0.0 | 3.2 | 0.00 | 0.94 | 0.94 | 99 | 1005.8 |
| 20260510004158 | 10 | 331 | 3.2 | 4.8 | 0.00 | 0.94 | 0.94 | 99 | 1005.9 |
| 20260510003656 | 10 | 343 | 1.6 | 3.2 | 0.00 | 0.94 | 0.94 | 99 | 1005.8 |
| 20260510003151 | 10 | 351 | 0.0 | 1.6 | 0.00 | 0.94 | 0.94 | 99 | 1005.6 |
| 20260510002646 | 11 | 336 | 1.6 | 3.2 | 0.00 | 0.94 | 0.94 | 99 | 1005.6 |
| 20260510002143 | 11 | 37 | 1.6 | 3.2 | 0.00 | 0.94 | 0.94 | 99 | 1005.6 |
| 20260510001640 | 11 | 37 | 1.6 | 3.2 | 0.00 | 0.94 | 0.94 | 99 | 1005.5 |
| 20260510001139 | 11 | 67 | 0.0 | 3.2 | 0.00 | 0.94 | 0.94 | 99 | 1005.5 |
| 20260510000638 | 11 | 337 | 0.0 | 3.2 | 0.00 | 0.94 | 0.94 | 99 | 1005.6 |
| 20260510000136 | 11 | 315 | 3.2 | 3.2 | 0.00 | 0.94 | 0.94 | 99 | 1005.6 |
| 20260509235632 | 11 | 55 | 0.0 | 3.2 | 0.00 | 0.94 | 0.94 | 99 | 1005.5 |
| 20260509235129 | 11 | 284 | 1.6 | 3.2 | 0.00 | 0.94 | 0.94 | 99 | 1005.7 |
| 20260509234625 | 11 | 38 | 0.0 | 3.2 | 0.00 | 0.94 | 0.94 | 99 | 1005.6 |
| 20260509234123 | 11 | 316 | 3.2 | 3.2 | 0.00 | 0.94 | 0.94 | 99 | 1005.4 |
| 20260509233620 | 11 | 339 | 0.0 | 3.2 | 0.00 | 0.94 | 0.94 | 99 | 1005.2 |
| 20260509233117 | 11 | 58 | 1.6 | 3.2 | 0.00 | 0.94 | 0.94 | 98 | 1005.2 |
| 20260509232613 | 11 | 336 | 0.0 | 3.2 | 0.00 | 0.94 | 0.94 | 98 | 1005.3 |
| 20260509232111 | 11 | 332 | 1.6 | 3.2 | 0.00 | 0.94 | 0.94 | 98 | 1005.3 |
| 20260509231607 | 12 | 322 | 1.6 | 3.2 | 0.00 | 0.94 | 0.94 | 97 | 1005.2 |
| 20260509231105 | 12 | 326 | 0.0 | 3.2 | 0.00 | 0.94 | 0.94 | 95 | 1005.1 |
| 20260509230601 | 12 | 76 | 0.0 | 3.2 | 0.00 | 0.94 | 0.94 | 93 | 1005.0 |
| 20260509230059 | 12 | 83 | 1.6 | 3.2 | 0.00 | 0.94 | 0.94 | 93 | 1005.0 |
| 20260509225554 | 12 | 97 | 3.2 | 4.8 | 0.00 | 0.94 | 0.94 | 93 | 1005.2 |
| 20260509225050 | 12 | 60 | 1.6 | 4.8 | 0.00 | 0.94 | 0.94 | 94 | 1005.1 |
| 20260509224545 | 12 | 29 | 1.6 | 4.8 | 0.00 | 0.94 | 0.94 | 93 | 1005.3 |
| 20260509224043 | 12 | 48 | 0.0 | 4.8 | 0.00 | 0.94 | 0.94 | 92 | 1005.6 |
| 20260509223539 | 13 | 122 | 6.4 | 6.4 | 0.00 | 0.94 | 0.94 | 93 | 1005.5 |
| 20260509223037 | 12 | 337 | 0.0 | 3.2 | 0.00 | 0.94 | 0.94 | 94 | 1005.5 |
| 20260509222533 | 12 | 240 | 4.8 | 6.4 | 0.00 | 0.94 | 0.94 | 94 | 1005.4 |
| 20260509222029 | 12 | 218 | 1.6 | 3.2 | 0.00 | 0.94 | 0.94 | 94 | 1005.2 |
| 20260509221525 | 12 | 202 | 8.0 | 8.0 | 0.00 | 0.94 | 0.94 | 94 | 1005.2 |
| 20260509221021 | 12 | 323 | 3.2 | 6.4 | 0.00 | 0.94 | 0.94 | 95 | 1005.2 |
| 20260509220517 | 12 | 201 | 3.2 | 8.0 | 0.00 | 0.94 | 0.94 | 95 | 1005.2 |
| 20260509220014 | 12 | 203 | 3.2 | 9.7 | 0.00 | 0.94 | 0.94 | 94 | 1005.4 |
| 20260509215509 | 12 | 207 | 3.2 | 4.8 | 0.00 | 0.94 | 0.94 | 95 | 1005.4 |
| 20260509215007 | 12 | 214 | 0.0 | 3.2 | 0.00 | 0.94 | 0.94 | 95 | 1005.5 |
| 20260509214504 | 12 | 194 | 1.6 | 4.8 | 0.00 | 0.94 | 0.94 | 95 | 1005.3 |
| 20260509214000 | 12 | 126 | 3.2 | 8.0 | 0.00 | 0.94 | 0.94 | 95 | 1005.6 |
| 20260509213456 | 12 | 182 | 3.2 | 4.8 | 0.00 | 0.94 | 0.94 | 95 | 1005.4 |
| 20260509212954 | 12 | 243 | 0.0 | 6.4 | 0.00 | 0.94 | 0.94 | 95 | 1005.4 |
| 20260509212451 | 12 | 216 | 3.2 | 6.4 | 0.00 | 0.94 | 0.94 | 95 | 1005.7 |
| 20260509211947 | 12 | 49 | 1.6 | 9.7 | 0.00 | 0.94 | 0.94 | 96 | 1005.6 |
| 20260509211442 | 12 | 230 | 1.6 | 6.4 | 0.00 | 0.94 | 0.94 | 97 | 1005.6 |
| 20260509210939 | 12 | 243 | 6.4 | 8.0 | 0.00 | 0.94 | 0.94 | 96 | 1005.7 |
| 20260509210437 | 12 | 258 | 4.8 | 6.4 | 0.00 | 0.94 | 0.94 | 97 | 1005.8 |
| 20260509205933 | 12 | 53 | 3.2 | 6.4 | 0.00 | 0.94 | 0.94 | 98 | 1005.9 |
| 20260509205433 | 12 | 355 | 4.8 | 6.4 | 0.00 | 0.94 | 0.94 | 98 | 1005.8 |
| 20260509204929 | 12 | 258 | 3.2 | 3.2 | 0.00 | 0.94 | 0.94 | 99 | 1006.0 |
| 20260509204425 | 11 | 177 | 0.0 | 3.2 | 0.05 | 0.94 | 0.94 | 99 | 1006.0 |
| 20260509203922 | 11 | 156 | 0.0 | 4.8 | 0.05 | 0.94 | 0.94 | 99 | 1006.0 |
| 20260509203418 | 11 | 36 | 0.0 | 4.8 | 0.00 | 0.91 | 0.91 | 99 | 1006.1 |
| 20260509202915 | 11 | 97 | 3.2 | 4.8 | 0.00 | 0.91 | 0.91 | 99 | 1006.0 |
| 20260509202411 | 11 | 88 | 1.6 | 4.8 | 0.00 | 0.91 | 0.91 | 99 | 1006.1 |
| 20260509201907 | 11 | 122 | 3.2 | 3.2 | 0.00 | 0.91 | 0.91 | 99 | 1006.3 |
| 20260509201402 | 11 | 106 | 0.0 | 3.2 | 0.00 | 0.91 | 0.91 | 99 | 1006.2 |
| 20260509200859 | 11 | 77 | 0.0 | 4.8 | 0.00 | 0.91 | 0.91 | 99 | 1006.3 |
| 20260509200354 | 11 | 47 | 3.2 | 3.2 | 0.00 | 0.91 | 0.91 | 99 | 1006.3 |
| 20260509195851 | 11 | 41 | 3.2 | 6.4 | 0.00 | 0.91 | 0.91 | 99 | 1006.3 |
| 20260509195346 | 11 | 107 | 3.2 | 3.2 | 0.05 | 0.91 | 0.91 | 99 | 1006.4 |
| 20260509194845 | 11 | 72 | 0.0 | 3.2 | 0.00 | 0.91 | 0.91 | 99 | 1006.6 |
| 20260509194342 | 11 | 232 | 0.0 | 3.2 | 0.00 | 0.91 | 0.91 | 99 | 1006.6 |
| 20260509193838 | 11 | 100 | 1.6 | 1.6 | 0.00 | 0.91 | 0.91 | 99 | 1006.6 |
| 20260509193338 | 11 | 24 | 0.0 | 3.2 | 0.00 | 0.91 | 0.91 | 99 | 1006.6 |
| 20260509192835 | 11 | 41 | 1.6 | 4.8 | 0.00 | 0.91 | 0.91 | 99 | 1006.8 |
| 20260509192331 | 11 | 100 | 1.6 | 4.8 | 0.00 | 0.91 | 0.91 | 99 | 1006.8 |
| 20260509191826 | 11 | 98 | 3.2 | 3.2 | 0.00 | 0.91 | 0.91 | 99 | 1006.8 |
| 20260509191322 | 11 | 63 | 3.2 | 3.2 | 0.05 | 0.91 | 0.91 | 99 | 1006.9 |
| 20260509190818 | 11 | 86 | 3.2 | 3.2 | 0.05 | 0.91 | 0.91 | 99 | 1006.8 |
| 20260509190315 | 11 | 173 | 3.2 | 4.8 | 0.13 | 0.89 | 0.89 | 99 | 1006.9 |
| 20260509185813 | 11 | 94 | 1.6 | 4.8 | 0.05 | 0.89 | 0.89 | 99 | 1007.1 |
| 20260509185308 | 11 | 135 | 1.6 | 4.8 | 0.13 | 0.89 | 0.89 | 98 | 1006.9 |
| 20260509184806 | 11 | 83 | 1.6 | 6.4 | 0.18 | 0.89 | 0.89 | 98 | 1007.0 |
| 20260509184303 | 11 | 134 | 3.2 | 4.8 | 0.05 | 0.86 | 0.86 | 98 | 1006.8 |
| 20260509183759 | 11 | 87 | 3.2 | 3.2 | 0.00 | 0.86 | 0.86 | 98 | 1006.9 |
| 20260509183255 | 11 | 82 | 0.0 | 4.8 | 0.00 | 0.86 | 0.86 | 98 | 1006.9 |
| 20260509182750 | 11 | 335 | 1.6 | 4.8 | 0.05 | 0.86 | 0.86 | 98 | 1006.9 |
| 20260509182248 | 11 | 253 | 3.2 | 4.8 | 0.05 | 0.86 | 0.86 | 98 | 1006.8 |
| 20260509181745 | 11 | 117 | 1.6 | 3.2 | 0.00 | 0.84 | 0.84 | 98 | 1006.8 |
| 20260509181243 | 11 | 119 | 1.6 | 4.8 | 0.00 | 0.84 | 0.84 | 97 | 1007.0 |
| 20260509180740 | 11 | 14 | 4.8 | 8.0 | 0.00 | 0.84 | 0.84 | 96 | 1006.9 |
| 20260509180236 | 11 | 266 | 4.8 | 16.1 | 0.00 | 0.84 | 0.84 | 95 | 1006.8 |
| 20260509175733 | 11 | 88 | 3.2 | 6.4 | 0.00 | 0.84 | 0.84 | 96 | 1006.9 |
| 20260509175229 | 11 | 70 | 0.0 | 8.0 | 0.00 | 0.84 | 0.84 | 96 | 1006.7 |
| 20260509174725 | 11 | 237 | 4.8 | 9.7 | 0.00 | 0.84 | 0.84 | 96 | 1006.7 |
| 20260509174220 | 11 | 139 | 3.2 | 8.0 | 0.00 | 0.84 | 0.84 | 96 | 1006.8 |
| 20260509173717 | 11 | 215 | 9.7 | 9.7 | 0.00 | 0.84 | 0.84 | 97 | 1006.8 |
| 20260509173212 | 11 | 169 | 3.2 | 9.7 | 0.00 | 0.84 | 0.84 | 97 | 1006.9 |
| 20260509172708 | 11 | 13 | 0.0 | 6.4 | 0.00 | 0.84 | 0.84 | 98 | 1006.8 |
| 20260509172205 | 10 | 180 | 3.2 | 9.7 | 0.00 | 0.84 | 0.84 | 98 | 1006.7 |
| 20260509171700 | 10 | 111 | 1.6 | 8.0 | 0.00 | 0.84 | 0.84 | 99 | 1006.6 |
| 20260509171157 | 10 | 127 | 3.2 | 3.2 | 0.00 | 0.84 | 0.84 | 99 | 1006.5 |
| 20260509170654 | 10 | 172 | 1.6 | 4.8 | 0.00 | 0.84 | 0.84 | 99 | 1006.8 |
| 20260509170150 | 10 | 75 | 3.2 | 3.2 | 0.00 | 0.84 | 0.84 | 99 | 1006.8 |
| 20260509165648 | 10 | 164 | 1.6 | 3.2 | 0.00 | 0.84 | 0.84 | 99 | 1006.7 |
| 20260509165144 | 10 | 119 | 1.6 | 9.7 | 0.00 | 0.84 | 0.84 | 99 | 1007.0 |
| 20260509164640 | 10 | 218 | 4.8 | 6.4 | 0.00 | 0.84 | 0.84 | 99 | 1006.9 |
| 20260509164136 | 10 | 132 | 1.6 | 3.2 | 0.00 | 0.84 | 0.84 | 99 | 1007.0 |
| 20260509163634 | 10 | 111 | 4.8 | 4.8 | 0.05 | 0.84 | 0.84 | 99 | 1006.8 |
| 20260509163129 | 10 | 88 | 3.2 | 3.2 | 0.05 | 0.84 | 0.84 | 99 | 1007.1 |
| 20260509162627 | 10 | 60 | 3.2 | 6.4 | 0.00 | 0.84 | 0.84 | 99 | 1007.1 |
| 20260509162123 | 10 | 193 | 3.2 | 4.8 | 0.05 | 0.84 | 0.84 | 99 | 1007.0 |
| 20260509161619 | 10 | 118 | 3.2 | 4.8 | 0.05 | 0.84 | 0.84 | 99 | 1007.1 |
| 20260509161114 | 10 | 262 | 3.2 | 4.8 | 0.00 | 0.81 | 0.81 | 99 | 1007.1 |
| 20260509160610 | 10 | 35 | 1.6 | 4.8 | 0.00 | 0.81 | 0.81 | 99 | 1007.2 |
| 20260509160105 | 10 | 284 | 4.8 | 8.0 | 0.00 | 0.81 | 0.81 | 99 | 1007.4 |
| 20260509155602 | 11 | 0 | 0.0 | 4.8 | 0.00 | 0.81 | 0.81 | 99 | 1007.5 |
| 20260509155058 | 10 | 135 | 0.0 | 8.0 | 0.00 | 0.81 | 0.81 | 99 | 1007.4 |
| 20260509154554 | 10 | 78 | 4.8 | 4.8 | 0.00 | 0.81 | 0.81 | 99 | 1007.6 |